Showing default

GHGSAT-C12, 64529

Orbit data source: Space-Track

GHGSAT-C12, 64529 is a payload satellite owned by GHG (CA) in SSO that was launched on Mon, 23 Jun 2025 UTC via an FALCON 9 launch vehicle from the Air Force Western Test Range (AFWTR). Payload-class satellites include a variety of spacecraft equipped with specific instruments for various scientific and technological missions. These include communications satellites like Starlink; space stations such as the ISS; scientific satellites like the Hubble; Earth observation satellites from companies like Planet Labs, Umbra, and HawkEye 360; GPS; miniature CubeSats for education and research; and military/defense satellites.

Loading next visibility...
Identifier
64529, 2025-135B
Orbit
SSO
Country
Flag of CACA
Related business
Manufacturer
UTIAS-SFL
Mission
Operational Commercial Earth Obs Sci
Bus & Motor
NEMO-V1, Unknown motor
Mass
15 kg wet, 15 kg dry
Launch date (UTC)
2025-06-23 (7 months ago)
Launch vehicle
FALCON 9
Launch site
Air Force Western Test Range (AFWTR)
Object type
Payload
Rocket body
Debris
Shape & HBR
Box, 1.0 m
Radar Cross Section
0.100 m², Small (<0.1 m²)

Expand to show TLE details & history
Last TLE update: 11 hours ago

TLE from 11 hours ago
0 GHGSAT-C12
1 64529U 25135B   26035.84413814  .00005255  00000-0  25268-3 0  9994
2 64529  97.4611 152.0458 0003685 275.7118  84.3696 15.19229993 34726
Epoch: 2026-02-04T20:15Z
TLE epoch observation values (Epoch: 2026-02-04T20:15:33.535Z)
Latitude
-0.00004°
Longitude
73.15118°
Altitude
511.006 km
Speed
7.608 km/s
True Right ascension
10h 08m 10s
True Declination
0° 00' 00"
Sunlit
Object was in full shadow at epoch
Visualization orbit readout
Latitude
Unknown
Longitude
Unknown
Altitude
Unknown
Speed
Unknown
Apparent Right ascension
Unknown
Apparent Declination
Unknown
Sunlit
N/A
Visualization observer readout
Local Sidereal Time
09:14:57
Azimuth
Unknown
Elevation
Unknown
Doppler factor
Unknown
Orbital elements
Apogee altitude
507.672 km
Perigee altitude
502.599 km
Semi-major axis
6,883.273 km
Eccentricity
0.00037
Inclination
97.4611°
RAAN
152.0458°
Arg. of periapsis
275.7118°
True anomaly
84.41163°
Mean anomaly
84.3696°
Eccentric anomaly
84.39061°
Mean motion
3.80059 °/min
Orbital period
94.72 mins
BSTAR
0.00025268
Loading maneuver chart data...
Computing Atmospheric mass density...
Loading historical data...
Loading historical data...
Loading historical data...
Loading historical data...
Loading historical data...
Loading historical data...
Loading historical data...

Documentation

Showing up to 5 results
|